Temperature
28 25 24 25 26 26 26 26 26 26 27 26 26 26 26 25 25 25 24 24 24 23 23 23 23 22 22 22 21 21 21 20 20 20 20 20 19 19 19 19 19 19 19 19
26 25 26 27 28 28 27 26 26 26 27 26 25 25 26 25 25 25 24 24 24 23 23 23 23 22 22 22 22 21 21 21 20 20 20 20 20 19 19 19 19 19 19 19
26 26 28 29 28 28 27 26 26 26 27 26 26 25 25 25 26 25 25 25 24 24 23 23 23 22 22 22 22 21 21 21 21 20 20 20 19 19 19 19 19 19 19 19
26 28 29 28 28 28 27 28 28 27 25 24 25 23 24 24 25 25 25 25 25 24 24 23 23 23 22 22 22 22 21 21 21 20 20 20 20 19 19 19 19 19 19 19
26 28 28 28 29 29 28 29 28 27 25 24 24 23 23 24 24 24 25 25 25 25 24 24 23 23 23 23 22 22 21 21 21 20 20 20 20 20 19 19 19 19 19 19
27 28 28 29 29 29 29 28 26 24 22 23 23 23 23 23 24 25 25 25 25 25 24 24 24 24 23 23 22 22 22 21 21 21 20 20 20 20 20 19 19 19 19 19
26 27 28 29 28 28 28 24 23 23 22 22 23 24 23 24 25 25 25 25 25 25 25 24 24 23 23 23 23 22 22 21 21 21 21 20 20 20 20 20 20 19 19 19
25 25 27 28 28 27 26 24 23 23 22 22 23 23 24 25 26 26 26 26 26 25 25 24 24 24 24 23 23 22 22 22 21 21 21 21 20 20 20 20 20 20 19 19
24 25 27 29 29 28 27 25 24 22 22 22 22 23 25 26 26 25 26 26 25 25 25 24 24 24 24 23 23 23 22 22 22 21 21 21 21 20 20 20 20 19 20 20
24 25 26 28 28 28 27 25 22 22 22 22 23 23 23 25 25 25 25 25 25 25 25 25 24 24 24 24 23 23 23 22 22 22 21 21 21 20 20 20 20 20 20 20
24 24 25 26 26 27 26 25 23 20 21 21 22 22 25 24 24 24 24 25 25 24 24 24 24 24 24 23 23 23 23 22 22 22 21 21 21 21 20 20 20 20 20 20
23 21 22 24 26 27 26 25 22 22 22 20 21 22 25 24 24 24 24 24 25 25 25 24 24 24 24 23 23 23 23 22 22 22 21 21 21 21 20 20 20 20 20 20
23 21 22 23 23 24 25 25 23 21 20 20 21 23 24 23 23 24 24 24 24 24 24 24 24 24 24 23 23 23 23 22 22 22 21 21 21 21 20 20 20 20 20 20
23 20 21 22 22 23 24 25 25 22 21 21 22 23 23 23 23 23 24 24 24 24 24 24 23 23 23 24 23 23 23 22 22 22 21 21 21 20 20 20 20 20 20 19
20 20 22 22 23 25 25 25 25 24 22 22 22 22 22 22 23 23 23 24 23 23 24 24 24 23 23 23 23 23 22 22 22 22 21 21 21 20 20 20 20 20 19 19
18 20 21 22 23 24 24 25 25 25 24 23 23 22 22 22 23 23 23 23 22 23 23 24 24 24 23 23 23 23 22 22 22 21 21 21 21 20 20 20 20 19 19 19
18 18 19 19 21 23 22 23 24 23 23 22 22 21 21 21 21 21 22 23 22 23 23 23 23 23 23 23 22 22 22 22 21 21 21 20 20 20 20 19 19 19 19 19
18 17 16 18 20 21 21 22 24 23 22 22 21 21 21 20 21 21 22 22 22 22 22 22 23 23 23 22 22 22 22 21 21 21 21 20 20 20 20 19 19 19 19 19
17 17 17 17 18 20 21 22 23 22 21 21 21 20 20 21 21 20 21 22 22 22 22 22 22 22 22 22 22 21 21 21 21 20 20 20 20 20 19 19 19 18 18 18
16 16 16 17 19 19 20 21 23 22 20 20 20 19 20 20 18 19 21 21 22 22 22 22 22 22 22 22 21 21 21 20 20 20 20 20 20 20 19 19 18 18 18 18
17 16 16 17 18 18 19 20 21 20 19 20 20 20 20 19 19 20 21 21 21 21 21 21 21 21 21 21 21 20 20 20 20 20 19 19 19 19 19 18 18 18 18 17
16 16 16 15 17 17 19 19 18 17 19 19 20 20 20 20 20 20 20 20 21 20 20 20 20 20 20 20 20 20 19 19 19 19 19 19 18 18 18 18 18 17 17 17
15 15 14 15 16 17 18 18 19 19 19 19 19 20 20 19 19 19 19 20 20 20 19 19 19 19 19 19 19 19 19 19 18 18 18 18 18 18 17 17 17 17 17 16
15 14 14 14 15 16 17 18 18 18 18 18 19 19 19 19 19 19 19 19 19 19 19 19 19 18 18 18 18 18 18 18 18 18 18 17 17 17 17 17 17 16 16 16
14 14 13 14 14 16 17 17 17 17 18 18 18 18 18 18 18 18 18 18 18 18 18 18 18 18 18 18 17 17 17 17 17 17 17 17 17 16 16 16 16 16 16 15
13 13 13 13 14 14 15 16 16 17 17 17 17 17 18 18 17 17 17 17 17 17 17 17 17 17 17 17 17 17 17 17 17 17 16 16 16 16 16 15 15 15 15 15
Wind_Speed
2 3 4 9 9 8 7 5 5 5 3 3 4 5 9 12 11 11 12 12 13 13 12 12 12 12 11 9 9 9 8 7 5 4 3 3 2 2 2 3 5 6 6 6
2 6 11 9 7 6 6 5 5 4 3 3 3 5 7 11 13 13 14 14 14 11 11 12 11 11 11 11 10 10 9 8 7 5 4 3 3 2 3 2 4 6 6 6
8 9 7 6 6 6 7 8 8 6 2 2 3 2 4 6 8 10 12 13 14 16 16 14 13 12 12 12 12 11 9 9 7 6 4 3 2 1 1 1 2 3 6 6
7 9 7 8 9 7 7 8 9 8 5 2 3 2 6 6 7 10 11 12 14 15 15 15 14 14 14 13 12 10 10 9 8 7 6 6 4 3 3 2 2 2 4 4
6 5 5 8 10 7 8 6 5 6 5 2 1 3 6 3 6 10 12 14 16 17 18 18 17 16 15 14 13 11 10 9 8 7 7 6 4 3 2 2 3 3 2 3
8 7 6 9 9 6 4 2 3 4 4 1 5 3 6 6 11 10 11 13 14 16 16 16 15 14 13 13 12 11 11 9 9 8 8 7 6 5 4 4 3 3 2 2
7 9 7 4 4 3 3 6 3 4 3 5 5 2 8 8 8 11 13 13 14 15 15 15 15 15 14 15 14 13 12 10 10 9 8 8 7 7 6 5 5 4 2 2
4 8 6 3 6 6 4 9 8 5 5 5 3 4 8 8 7 8 9 10 12 13 14 16 17 16 16 16 15 14 13 11 11 10 9 8 7 6 4 5 5 5 4 4
6 7 7 6 5 7 4 4 9 8 3 1 4 6 7 0 4 5 7 8 10 12 13 15 15 15 16 16 15 15 14 12 11 11 9 8 7 6 5 5 4 4 3 4
7 5 7 5 2 2 6 7 6 6 5 2 4 4 4 4 4 5 7 9 9 9 10 12 13 14 14 14 13 13 13 13 11 10 10 9 7 6 6 5 5 4 4 4
5 4 6 3 1 4 0 2 4 5 6 6 3 6 5 6 6 7 8 9 9 9 9 9 10 11 11 11 12 12 12 11 10 10 9 8 7 7 6 5 5 5 4 4
2 5 3 6 6 3 4 4 6 5 3 5 5 6 5 4 5 6 8 8 8 9 8 8 9 9 9 10 11 12 11 11 10 10 9 8 7 7 6 6 6 5 5 4
1 5 1 7 7 5 2 0 3 6 5 4 5 6 3 3 3 4 7 8 8 8 7 6 7 8 8 9 10 11 11 11 10 9 9 8 7 7 7 7 6 5 5 5
3 4 6 8 6 3 4 4 1 5 4 4 6 6 3 2 4 4 5 7 8 8 8 7 7 8 8 8 9 9 10 10 9 9 8 8 8 7 6 6 6 5 5 5
5 2 2 3 4 2 2 4 2 2 6 7 7 7 7 6 6 6 7 8 8 7 6 7 8 8 8 7 8 8 8 9 9 9 8 8 7 6 6 5 5 5 5 6
4 2 2 4 4 3 3 5 3 2 2 4 5 4 4 3 4 5 7 8 8 6 5 6 7 8 8 9 8 8 8 9 9 9 8 7 7 6 6 5 5 4 4 4
2 3 3 3 5 4 4 4 2 1 0 4 4 5 3 5 5 4 6 8 8 7 5 5 6 7 7 8 8 8 9 8 8 8 7 6 6 6 6 6 5 5 5 4
4 3 3 0 3 3 7 3 3 5 3 2 3 4 6 6 4 4 4 5 5 5 5 5 5 5 5 6 7 7 7 8 8 7 7 6 6 6 5 5 5 5 4 4
6 6 3 3 1 4 5 3 1 4 2 3 5 6 6 5 6 4 3 3 4 4 4 4 5 6 5 5 6 7 6 6 7 7 6 6 6 5 5 5 4 4 4 3
4 6 5 3 3 5 5 5 3 5 1 3 4 6 5 5 4 2 2 2 3 3 3 3 4 5 5 4 6 7 6 6 6 6 6 5 5 6 6 5 4 3 4 4
3 2 4 4 3 5 6 6 4 3 4 2 3 3 4 3 5 5 2 2 3 3 3 4 5 4 3 3 5 6 5 5 5 5 4 4 4 5 5 5 4 4 4 4
3 2 3 4 3 5 4 4 3 4 3 1 1 2 2 2 3 3 4 4 4 4 4 4 4 2 1 3 5 5 4 4 4 4 4 4 4 4 4 4 4 4 5 5
1 4 4 5 5 4 1 2 3 3 1 0 0 1 3 3 3 3 3 3 3 3 3 3 3 2 1 1 4 5 3 3 4 4 4 4 3 3 4 4 4 4 3 4
4 2 2 1 1 2 3 4 4 2 1 1 1 1 2 3 3 3 3 2 2 2 2 2 3 2 1 1 3 4 4 4 4 4 4 3 3 2 2 3 3 4 4 3
3 3 2 1 3 5 5 5 6 5 3 3 2 1 2 4 3 3 2 2 1 1 1 2 2 2 1 1 1 2 3 4 4 4 3 3 3 4 3 2 1 3 3 5
3 3 3 4 4 2 5 6 6 5 3 2 2 1 1 3 3 3 2 1 1 1 1 1 1 1 1 1 1 2 3 4 5 3 3 3 2 2 3 3 1 3 1 2
Wind_Direction
263 104 212 219 209 203 198 196 226 233 217 144 181 196 183 181 181 181 180 175 176 180 176 168 166 163 156 154 154 152 153 160 148 138 137 136 162 173 168 174 175 174 171 167
352 253 236 225 227 227 217 210 219 248 215 155 188 220 198 183 190 186 184 182 180 173 170 171 168 166 164 165 164 160 163 165 163 161 158 159 163 173 178 183 176 180 177 172
217 242 244 238 245 234 242 207 200 196 192 109 113 301 237 205 194 191 185 184 181 178 177 177 175 173 170 171 172 170 169 168 169 161 146 140 111 82 96 160 189 191 181 178
243 251 247 253 249 220 243 218 182 171 145 223 149 219 267 213 200 194 188 184 183 183 178 179 178 176 179 179 174 168 169 170 172 164 157 156 162 173 192 187 186 188 185 183
249 249 244 245 246 222 223 205 169 155 146 115 33 151 273 223 210 206 196 191 188 185 181 181 181 181 181 178 174 173 170 173 174 172 171 169 176 182 180 164 161 176 189 190
250 258 227 232 253 222 204 127 62 58 79 94 243 186 263 219 214 207 198 197 194 189 185 183 182 176 177 176 175 175 174 180 178 176 177 178 181 181 174 177 179 190 195 203
285 284 265 240 276 275 114 106 47 358 5 255 256 203 248 235 209 196 192 194 193 188 183 179 178 178 177 177 179 179 179 183 184 183 186 186 186 184 185 188 189 188 187 200
237 277 265 237 207 213 206 144 158 189 217 269 299 234 254 241 205 183 179 181 182 185 184 181 182 180 180 180 179 179 181 184 184 184 189 187 187 187 192 190 184 188 196 206
199 250 270 255 234 179 183 179 168 143 170 200 274 285 307 351 145 146 158 162 174 182 182 182 181 180 180 181 182 182 182 184 186 187 185 185 188 189 186 182 181 188 200 203
178 245 280 283 352 305 170 164 105 123 155 217 286 281 256 253 177 155 157 165 169 175 176 181 182 181 181 182 181 180 182 186 187 187 188 191 192 190 184 179 189 194 202 200
154 180 291 333 227 233 22 102 111 126 147 156 222 270 245 213 184 168 168 164 160 162 168 174 179 177 173 171 173 177 183 183 185 186 188 188 185 185 183 187 198 199 199 193
179 142 251 267 264 205 159 159 138 147 204 163 167 256 278 187 173 157 154 147 148 152 159 167 166 161 162 168 174 178 179 181 185 185 183 185 182 180 185 197 203 197 197 197
96 114 75 329 337 0 31 36 129 137 131 151 165 251 311 108 131 151 148 148 146 141 138 148 152 156 163 171 176 177 177 180 179 173 176 180 185 189 195 202 204 195 193 194
103 111 163 200 226 259 302 308 87 118 146 185 200 220 273 148 153 157 147 141 138 145 147 145 154 161 164 169 172 179 182 179 172 169 174 181 188 192 196 199 196 194 194 194
78 112 198 229 247 257 283 287 281 189 185 182 206 199 213 201 174 160 149 137 129 138 146 155 161 168 166 164 167 175 179 173 168 166 174 184 187 185 179 179 181 183 187 193
45 94 26 336 315 327 313 289 268 226 188 175 165 206 221 167 115 112 121 126 129 140 157 166 168 164 166 170 170 171 173 170 165 170 180 183 181 180 179 182 182 180 186 188
15 80 68 294 310 6 309 270 178 116 99 150 182 215 158 117 112 133 138 135 140 148 158 168 171 168 173 175 171 173 171 165 163 169 174 177 178 179 182 182 175 180 188 187
150 103 123 129 26 232 249 271 114 111 70 65 125 138 135 135 136 105 94 115 131 146 157 163 165 168 171 170 166 162 160 159 163 168 171 171 173 179 181 176 181 187 185 183
160 142 126 125 189 271 295 323 46 115 40 28 108 116 118 127 88 48 44 99 137 153 155 157 156 157 160 157 152 142 141 148 155 167 173 175 175 174 175 181 186 183 173 170
86 114 128 142 167 223 251 304 322 96 28 355 100 125 131 107 110 242 287 98 94 106 115 123 127 123 128 148 147 141 150 157 171 179 179 174 174 176 179 183 181 176 169 173
34 62 148 171 200 255 279 307 39 112 226 276 121 144 147 153 184 197 170 96 88 85 91 108 112 116 139 144 138 147 159 178 188 175 163 166 180 181 182 180 173 166 163 158
194 167 182 155 187 247 316 37 109 204 245 257 121 145 134 138 135 133 121 102 86 73 69 89 106 109 111 130 133 145 175 188 171 158 162 175 185 186 176 168 171 165 159 161
193 189 183 180 207 241 307 141 176 166 145 27 61 168 131 132 130 122 119 113 104 97 92 97 113 104 65 155 158 165 191 172 156 153 162 174 182 182 169 164 168 169 168 176
323 12 73 23 293 324 19 40 23 32 59 85 104 108 127 137 139 121 115 111 100 100 104 96 96 116 170 175 177 177 174 161 150 153 161 162 161 160 154 153 161 169 178 184
292 360 26 324 307 347 357 7 357 347 17 34 41 81 131 133 136 131 131 138 132 116 128 118 131 168 196 186 199 188 168 152 148 158 162 159 160 160 153 146 166 180 193 191
232 199 192 235 241 241 287 315 341 347 352 27 39 14 84 144 148 145 157 179 152 130 115 109 110 144 185 174 215 207 182 166 158 162 162 166 165 161 158 147 93 32 136 172
Height
1478 1486 1493 1490 1487 1489 1492 1498 1502 1495 1486 1491 1494 1495 1494 1495 1497 1498 1500 1501 1503 1505 1508 1510 1512 1514 1516 1518 1520 1521 1523 1524 1526 1527 1528 1529 1530 1531 1532 1533 1534 1535 1536 1537
1485 1489 1479 1477 1479 1483 1488 1497 1499 1492 1484 1490 1495 1495 1491 1492 1493 1494 1497 1498 1501 1504 1507 1509 1510 1513 1514 1516 1518 1520 1522 1523 1525 1526 1528 1529 1530 1531 1532 1533 1533 1534 1535 1536
1487 1480 1472 1475 1480 1484 1486 1492 1493 1493 1487 1489 1495 1501 1495 1491 1491 1493 1494 1496 1498 1500 1503 1506 1508 1510 1512 1515 1517 1518 1520 1522 1524 1525 1527 1528 1529 1530 1531 1532 1533 1534 1535 1536
1479 1472 1472 1475 1478 1478 1488 1477 1479 1484 1496 1506 1502 1520 1500 1491 1490 1490 1491 1493 1495 1497 1500 1502 1505 1508 1510 1512 1515 1517 1519 1521 1523 1524 1526 1527 1528 1528 1530 1531 1532 1533 1534 1535
1477 1470 1472 1476 1472 1470 1476 1469 1475 1481 1493 1505 1504 1515 1506 1491 1491 1488 1487 1488 1490 1492 1495 1498 1501 1504 1507 1510 1513 1515 1518 1520 1522 1523 1525 1526 1527 1528 1529 1531 1532 1533 1534 1534
1470 1464 1465 1465 1462 1464 1466 1473 1480 1490 1502 1519 1508 1512 1509 1493 1485 1481 1482 1484 1486 1489 1492 1495 1499 1502 1505 1508 1511 1514 1516 1518 1520 1522 1524 1525 1526 1527 1528 1530 1531 1532 1533 1533
1475 1466 1460 1459 1465 1465 1468 1489 1513 1518 1527 1523 1503 1505 1501 1478 1472 1473 1476 1479 1482 1485 1489 1492 1496 1499 1502 1505 1508 1511 1513 1516 1518 1520 1522 1523 1525 1526 1527 1528 1529 1530 1531 1532
1487 1484 1463 1457 1462 1469 1471 1484 1512 1526 1530 1521 1505 1505 1487 1468 1467 1468 1471 1475 1478 1482 1485 1488 1491 1494 1498 1502 1505 1508 1511 1513 1516 1518 1520 1522 1524 1525 1526 1527 1528 1529 1530 1531
1483 1480 1457 1452 1452 1458 1469 1478 1481 1503 1513 1521 1512 1497 1479 1467 1467 1468 1471 1474 1477 1479 1482 1485 1489 1492 1495 1499 1502 1505 1508 1511 1513 1516 1518 1520 1522 1523 1524 1526 1527 1528 1528 1529
1467 1476 1461 1452 1451 1453 1458 1467 1486 1503 1520 1526 1514 1503 1495 1477 1471 1469 1470 1473 1475 1478 1481 1484 1487 1489 1493 1496 1499 1503 1506 1508 1511 1514 1516 1518 1520 1522 1523 1524 1525 1526 1526 1527
1462 1475 1469 1460 1463 1465 1464 1469 1480 1496 1502 1520 1524 1510 1475 1472 1468 1468 1469 1471 1473 1476 1478 1482 1485 1488 1491 1495 1498 1501 1503 1506 1509 1512 1514 1516 1518 1519 1521 1522 1522 1523 1524 1525
1461 1473 1480 1469 1456 1452 1457 1465 1478 1496 1503 1506 1512 1504 1466 1465 1465 1466 1468 1469 1471 1474 1477 1480 1483 1486 1490 1493 1495 1498 1501 1504 1507 1509 1512 1514 1515 1517 1518 1519 1520 1521 1521 1522
1460 1474 1488 1484 1475 1463 1462 1462 1468 1479 1493 1504 1510 1498 1466 1465 1465 1465 1467 1468 1470 1473 1476 1480 1482 1485 1487 1491 1494 1497 1499 1501 1504 1507 1509 1511 1512 1514 1515 1516 1517 1518 1519 1520
1456 1473 1483 1490 1484 1472 1469 1464 1464 1476 1493 1497 1493 1486 1473 1468 1467 1466 1466 1468 1470 1472 1475 1477 1480 1483 1485 1488 1491 1495 1497 1500 1502 1505 1507 1509 1510 1511 1513 1514 1515 1516 1517 1517
1459 1473 1471 1469 1465 1462 1463 1463 1462 1467 1474 1483 1480 1478 1472 1467 1465 1464 1466 1467 1469 1472 1474 1476 1478 1481 1483 1485 1488 1492 1495 1497 1500 1502 1504 1506 1508 1509 1510 1511 1512 1513 1514 1515
1464 1472 1471 1471 1463 1461 1463 1460 1459 1461 1464 1468 1470 1472 1464 1464 1463 1464 1465 1467 1469 1471 1473 1474 1476 1478 1480 1483 1486 1489 1492 1494 1497 1499 1501 1503 1505 1506 1507 1508 1509 1510 1511 1512
1469 1474 1480 1482 1470 1466 1474 1462 1460 1462 1462 1465 1472 1469 1464 1464 1465 1465 1465 1466 1468 1470 1472 1473 1474 1476 1478 1481 1484 1486 1489 1492 1494 1496 1499 1501 1502 1503 1504 1505 1506 1507 1507 1508
1469 1476 1484 1485 1480 1488 1473 1456 1454 1458 1462 1461 1462 1463 1463 1464 1465 1467 1467 1468 1469 1470 1471 1472 1473 1475 1478 1480 1481 1483 1486 1489 1491 1493 1495 1497 1499 1500 1502 1503 1503 1504 1504 1504
1460 1471 1482 1489 1490 1482 1467 1457 1456 1461 1467 1462 1462 1463 1465 1465 1466 1469 1469 1469 1470 1470 1471 1471 1472 1474 1476 1478 1480 1481 1484 1486 1488 1490 1492 1494 1496 1497 1498 1499 1500 1501 1501 1501
1460 1465 1479 1486 1488 1488 1471 1457 1453 1457 1471 1463 1462 1463 1465 1464 1472 1472 1470 1469 1470 1470 1471 1471 1472 1473 1474 1476 1477 1479 1481 1483 1485 1487 1489 1491 1492 1494 1495 1496 1497 1498 1498 1498
1471 1474 1478 1483 1485 1478 1463 1456 1454 1472 1475 1464 1462 1463 1464 1465 1467 1468 1468 1469 1469 1470 1470 1470 1471 1472 1473 1475 1476 1477 1478 1480 1482 1484 1485 1487 1489 1490 1491 1493 1493 1494 1494 1495
1475 1478 1480 1482 1486 1482 1461 1459 1464 1467 1463 1462 1461 1462 1463 1464 1465 1466 1467 1468 1468 1469 1469 1469 1469 1470 1471 1473 1474 1475 1476 1477 1479 1481 1482 1484 1485 1486 1488 1489 1489 1490 1490 1491
1471 1472 1473 1475 1476 1466 1462 1461 1461 1461 1460 1460 1460 1460 1462 1463 1464 1464 1465 1467 1467 1468 1468 1469 1468 1468 1470 1471 1472 1473 1474 1476 1477 1478 1479 1481 1482 1483 1484 1485 1485 1486 1487 1487
1469 1466 1468 1470 1467 1464 1462 1461 1460 1459 1458 1458 1458 1459 1460 1461 1462 1463 1464 1465 1466 1466 1467 1467 1467 1467 1468 1469 1470 1471 1472 1473 1474 1475 1476 1477 1478 1479 1480 1481 1482 1482 1483 1483
1470 1468 1470 1470 1466 1463 1461 1461 1460 1459 1457 1456 1457 1458 1459 1460 1461 1462 1463 1464 1464 1465 1466 1466 1466 1466 1466 1467 1468 1468 1469 1470 1471 1471 1472 1473 1474 1475 1476 1477 1478 1478 1479 1480
1467 1469 1471 1470 1465 1465 1463 1461 1459 1457 1456 1456 1456 1457 1457 1459 1459 1460 1461 1462 1462 1463 1463 1464 1464 1464 1464 1465 1465 1466 1466 1467 1467 1468 1469 1470 1471 1472 1472 1473 1474 1475 1476 1476